Flag for Switzerland Weather past 2 weeks in Zürich, Zurich, Switzerland

Now
86 °F

Warm.


Feels Like: 87 °F
Forecast: 60 / 94 °F
Wind: 3 mph from Northeast

Location: Zurich Town / Ville.

Current Time: Jul 3, 2015 at 1:17:06 PM

Latest Report: Jul 3, 2015 at 12:00 PM


Visibility: N/A

Pressure: 30.17 "Hg

Humidity: 43%

Dew point: 61 °F

Location of ZürichLocation

Historic Weather in Zürich — Graph

°F

Zürich temperature yesterday

Maximum temperature yesterday: 92 °F (at 5:00 PM)
Minimum temperature yesterday: 67 °F (at 7:00 AM)
Average temperature yesterday: 79 °F

Past Weeks' High & Low Weather Summary

 TemperatureHumidityPressure
High92 °F (Jul 2, 5:00 PM)98% (Jun 18, 8:00 PM)30.23 "Hg (Jun 18, 8:00 PM)
Low47 °F (Jun 24, 5:00 AM)26% (Jun 25, 8:00 PM)29.70 "Hg (Jun 22, 10:00 PM)
Average65 °F65%30.09 "Hg
* Reported Jun 18 12:00 Noon — Jul 3 12:00 Noon, Zürich, Weather by CustomWeather, © 2015

Note: Actual official high and low records may vary slightly from our data, if they occured in-between our weather recording intervals... More about our weather records

Advertising

Zürich weather history for previous 24 hours

 ConditionsComfort  
Time TempWeatherWind HumidityBarometerVisibility
12:00 PM
Fri, Jul 3
86 °FWarm.3 mph43%30.17 "HgN/A
11:00 AM83 °FWarm.2 mph46%30.19 "HgN/A
10:00 AM80 °FWarm.1 mph53%30.20 "HgN/A
9:00 AM75 °FMild.1 mph69%30.22 "HgN/A
8:00 AM73 °FMild.1 mph73%30.22 "HgN/A
7:00 AM73 °FMild.1 mph78%30.21 "HgN/A
6:00 AM72 °FMild.1 mph76%30.20 "HgN/A
5:00 AM72 °FMild.1 mph79%30.19 "HgN/A
4:00 AM74 °FMild.1 mph73%30.19 "HgN/A
3:00 AM74 °FMild.1 mph68%30.18 "HgN/A
2:00 AM75 °FMild.1 mph68%30.17 "HgN/A
1:00 AM76 °FMild.2 mph66%30.16 "HgN/A
12:00 AM78 °FWarm.1 mph60%30.14 "HgN/A
11:00 PM
Thu, Jul 2
78 °FWarm.1 mph58%30.13 "HgN/A
10:00 PM80 °FWarm.3 mph56%30.11 "HgN/A
9:00 PM83 °FWarm.5 mph50%30.08 "HgN/A
8:00 PM87 °FPassing clouds.3 mph46%30.05 "HgN/A
7:00 PM89 °FHot.3 mph43%30.04 "HgN/A
6:00 PM90 °FHot.3 mph38%30.03 "HgN/A
5:00 PM92 °FHot.3 mph33%30.03 "HgN/A
4:00 PM91 °FHot.3 mph37%30.03 "HgN/A
3:00 PM89 °FHot.2 mph35%30.04 "HgN/A
2:00 PM89 °FSunny.5 mph41%30.05 "HgN/A
1:00 PM87 °FWarm.3 mph45%30.06 "HgN/A
Weather by CustomWeather, © 2015

See weather overviewHow to use our weather pages